Flag for France Weather past 2 weeks in Rouen, France

Now
37 °F

Clear.


Feels Like: 32 °F
Forecast: 38 / 61 °F
Wind: 7 mph from South

Location: Rouen Airport

Current Time: Mar 7, 2015 at 2:42:18 AM

Latest Report: Mar 7, 2015 at 2:00 AM


Visibility: N/A

Pressure: 30.48 "Hg

Humidity: 87%

Dew point: 34 °F

Location of RouenLocation

Historic Weather in Rouen — Graph

°F

Rouen temperature yesterday

Maximum temperature yesterday: 55 °F (at 5:00 PM)
Minimum temperature yesterday: 32 °F (at 1:00 AM)
Average temperature yesterday: 42 °F

Past Weeks' High & Low Weather Summary

 TemperatureHumidityPressure
High55 °F (Mar 6, 5:00 PM)100% (Feb 20, 10:30 AM)30.72 "Hg (Feb 20, 10:30 AM)
Low28 °F (Feb 22, 6:00 AM)44% (Mar 6, 5:00 PM)29.39 "Hg (Feb 23, 4:00 AM)
Average42 °F83%30.00 "Hg
* Reported Feb 20 1:00 AM — Mar 7 1:30 AM, Rouen, Weather by CustomWeather, © 2015

Note: Actual official high and low records may vary slightly from our data, if they occured in-between our weather recording intervals... More about our weather records

Advertising

Rouen weather history for previous 24 hours

 ConditionsComfort  
Time TempWeatherWind HumidityBarometerVisibility
1:30 AM
Sat, Mar 7
39 °FClear.8 mph81%30.48 "HgN/A
1:00 AM41 °FClear.7 mph76%30.51 "HgN/A
12:30 AM41 °FClear.6 mph76%30.51 "HgN/A
12:00 AM41 °FClear.7 mph76%30.51 "HgN/A
11:30 PM
Fri, Mar 6
41 °FClear.5 mph76%30.51 "HgN/A
11:00 PM41 °FClear.6 mph76%30.54 "HgN/A
10:30 PM41 °FClear.6 mph76%30.54 "HgN/A
10:00 PM43 °FClear.5 mph71%30.54 "HgN/A
9:30 PM43 °FClear.6 mph71%30.54 "HgN/A
9:00 PM43 °FClear.6 mph71%30.51 "HgN/A
8:30 PM43 °FClear.7 mph71%30.51 "HgN/A
8:00 PM43 °FClear.7 mph71%30.51 "HgN/A
7:30 PM43 °FClear.6 mph71%30.51 "HgN/A
7:00 PM46 °FClear.5 mph62%30.54 "HgN/A
6:30 PM46 °FClear.6 mph66%30.54 "HgN/A
6:00 PM52 °FClear.6 mph50%30.54 "HgN/A
5:30 PM54 °FClear.7 mph47%30.54 "HgN/A
5:00 PM55 °FClear.7 mph44%30.54 "HgN/A
4:30 PM54 °FClear.7 mph47%30.54 "HgN/A
4:00 PM54 °FClear.7 mph47%30.54 "HgN/A
3:30 PM52 °FClear.8 mph50%30.54 "HgN/A
3:00 PM52 °FClear.7 mph54%30.57 "HgN/A
2:30 PM52 °FClear.6 mph58%30.57 "HgN/A
2:00 PM52 °FClear.7 mph58%30.57 "HgN/A
1:30 PM52 °FClear.7 mph58%30.60 "HgN/A
1:00 PM50 °FClear.7 mph58%30.60 "HgN/A
12:30 PM50 °FClear.6 mph62%30.63 "HgN/A
12:00 PM48 °FClear.6 mph62%30.66 "HgN/A
11:30 AM46 °FClear.5 mph66%30.66 "HgN/A
11:00 AM45 °FClear.7 mph71%30.66 "HgN/A
10:30 AM45 °FClear.8 mph71%30.66 "HgN/A
10:00 AM41 °FPartly sunny.5 mph87%30.66 "HgN/A
9:30 AM37 °FOvercast.3 mph87%30.66 "HgN/A
9:00 AM36 °FPartly sunny.5 mph93%30.66 "HgN/A
8:30 AM34 °FPartly sunny.3 mph93%30.66 "Hg4 mi
8:00 AM34 °FOvercast.2 mph93%30.66 "Hg4 mi
7:30 AM34 °FFog.3 mph93%30.66 "Hg3 mi
7:00 AM34 °FOvercast.3 mph93%30.66 "Hg4 mi
6:30 AM34 °FOvercast.3 mph93%30.66 "Hg4 mi
6:00 AM34 °FPassing clouds.3 mph93%30.66 "Hg5 mi
5:30 AM34 °FOvercast.2 mph93%30.66 "Hg4 mi
5:00 AM34 °FOvercast.2 mph93%30.66 "Hg4 mi
4:30 AM34 °FOvercast.2 mph93%30.66 "Hg4 mi
4:00 AM34 °FOvercast.2 mph93%30.66 "Hg4 mi
3:30 AM32 °FOvercast.3 mph100%30.66 "Hg4 mi
3:00 AM32 °FClear.3 mph100%30.66 "Hg5 mi
2:30 AM32 °FClear.3 mph93%30.66 "HgN/A
2:00 AM32 °FPassing clouds.3 mph93%30.66 "Hg6 mi
Weather by CustomWeather, © 2015

See weather overviewHow to use our weather pages